Brady, TX

5:17 AM CST on February 26, 2017 (GMT -0600)
Curtis

Weather History for KBBD - February, 2014

Change the Weather History Date:

Friday, February 14, 2014

  Actual Average (KJCT) Record (KJCT)
Temperature  
Mean Temperature 62 °F -  
Max Temperature 75 °F 62 °F 82 °F (2000)
Min Temperature 48 °F 37 °F 21 °F (1999)
Degree Days  
Heating Degree Days 4    
Growing Degree Days 12 (Base 50)    
Moisture  
Dew Point 31 °F    
Average Humidity 36    
Maximum Humidity 62    
Minimum Humidity 19    
Precipitation  
Precipitation 0.00 in - - ()
Sea Level Pressure  
Sea Level Pressure 29.94 in    
Wind  
Wind Speed 11 mph (NW)    
Max Wind Speed 24 mph    
Max Gust Speed 34 mph    
Visibility 10 miles    
Events      
Averages and records for this station are not official NWS values.
T = Trace of Precipitation, MM = Missing Value Source: NWS Daily Summary

Daily Weather History Graph

Daily Weather History Graph

Search for Another Location

Airport or City:

Trip Planner

Search our weather history database for the weather conditions in past years. The results will help you decide how hot, cold, wet, or windy it might be!

Date:

Astronomy

Feb. 14, 2014 Rise Set
Actual Time 7:19 AM CST 6:23 PM CST
Civil Twilight 6:54 AM CST 6:48 PM CST
Nautical Twilight 6:26 AM CST 7:17 PM CST
Astronomical Twilight 5:57 AM CST 7:45 PM CST
Moon 6:25 PM CST (2/14) 6:49 AM CST (2/14)
Length of Visible Light 11h 54m
Length of Day
11h 04m
Full, 100% of the Moon is Illuminated
Feb 14
Full
Feb 14
Full
Feb 22
Last Quarter
Mar 1
New
Mar 8
First Quarter

Hourly Weather History & Observations

Time (CST) Temp. Dew Point Humidity Pressure Visibility Wind Dir Wind Speed Gust Speed Precip Events Conditions
12:15 AM 51.8 °F 32.0 °F 47% 29.90 in 10.0 mi SSW 9.2 mph - N/A   Clear
12:35 AM 51.8 °F 32.0 °F 47% 29.88 in 10.0 mi SSW 8.1 mph - N/A   Clear
12:55 AM 51.8 °F 32.0 °F 47% 29.87 in 10.0 mi South 5.8 mph - N/A   Clear
1:15 AM 51.8 °F 32.0 °F 47% 29.87 in 10.0 mi SSW 6.9 mph - N/A   Clear
1:35 AM 51.8 °F 32.0 °F 47% 29.85 in 10.0 mi South 8.1 mph - N/A   Clear
1:55 AM 51.8 °F 32.0 °F 47% 29.85 in 10.0 mi South 11.5 mph - N/A   Clear
2:15 AM 51.8 °F 32.0 °F 47% 29.85 in 10.0 mi South 10.4 mph - N/A   Clear
2:35 AM 51.8 °F 32.0 °F 47% 29.84 in 10.0 mi SSW 8.1 mph - N/A   Clear
2:55 AM 51.8 °F 32.0 °F 47% 29.84 in 10.0 mi SSW 9.2 mph - N/A   Clear
3:15 AM 51.8 °F 32.0 °F 47% 29.82 in 10.0 mi South 10.4 mph - N/A   Clear
3:35 AM 51.8 °F 32.0 °F 47% 29.82 in 10.0 mi SSW 8.1 mph - N/A   Clear
3:55 AM 51.8 °F 33.8 °F 50% 29.82 in 10.0 mi SSW 9.2 mph - N/A   Clear
4:15 AM 51.8 °F 33.8 °F 50% 29.81 in 10.0 mi SSW 8.1 mph - N/A   Clear
4:35 AM 51.8 °F 33.8 °F 50% 29.81 in 10.0 mi SSW 6.9 mph - N/A   Clear
4:55 AM 51.8 °F 33.8 °F 50% 29.81 in 10.0 mi SSW 4.6 mph - N/A   Clear
5:15 AM 51.8 °F 33.8 °F 50% 29.81 in 10.0 mi SW 4.6 mph - N/A   Clear
5:35 AM 51.8 °F 33.8 °F 50% 29.79 in 10.0 mi South 8.1 mph - N/A   Clear
5:55 AM 50.0 °F 33.8 °F 54% 29.79 in 10.0 mi SSW 6.9 mph - N/A   Clear
6:15 AM 51.8 °F 35.6 °F 54% 29.80 in 10.0 mi SSW 6.9 mph - N/A   Clear
6:35 AM 51.8 °F 35.6 °F 54% 29.80 in 10.0 mi SW 10.4 mph - N/A   Clear
6:55 AM 48.2 °F 35.6 °F 62% 29.81 in 10.0 mi SW 9.2 mph - N/A   Clear
7:15 AM 50.0 °F 35.6 °F 58% 29.82 in 10.0 mi SW 12.7 mph - N/A   Clear
7:35 AM 51.8 °F 35.6 °F 54% 29.83 in 10.0 mi WSW 11.5 mph - N/A   Clear
7:55 AM 51.8 °F 35.6 °F 54% 29.84 in 10.0 mi WSW 9.2 mph - N/A   Clear
8:15 AM 55.4 °F 37.4 °F 51% 29.86 in 10.0 mi West 8.1 mph - N/A   Clear
8:35 AM 57.2 °F 37.4 °F 48% 29.86 in 10.0 mi WSW 9.2 mph - N/A   Clear
8:55 AM 59.0 °F 37.4 °F 45% 29.87 in 10.0 mi WSW 11.5 mph - N/A   Clear
9:15 AM 62.6 °F 35.6 °F 37% 29.88 in 10.0 mi West 12.7 mph - N/A   Clear
9:35 AM 66.2 °F 35.6 °F 32% 29.89 in 10.0 mi West 13.8 mph - N/A   Clear
9:55 AM 69.8 °F 35.6 °F 28% 29.90 in 10.0 mi West 10.4 mph - N/A   Clear
10:15 AM 71.6 °F 30.2 °F 22% 29.91 in 10.0 mi WNW 13.8 mph - N/A   Clear
10:35 AM 71.6 °F 30.2 °F 22% 29.92 in 10.0 mi NW 21.9 mph - N/A   Clear
10:55 AM 69.8 °F 33.8 °F 27% 29.93 in 10.0 mi NW 19.6 mph - N/A   Clear
11:15 AM 71.6 °F 33.8 °F 25% 29.94 in 10.0 mi NW 16.1 mph - N/A   Clear
11:35 AM 71.6 °F 33.8 °F 25% 29.94 in 10.0 mi NNW 18.4 mph - N/A   Clear
11:55 AM 73.4 °F 33.8 °F 23% 29.94 in 10.0 mi NNW 17.3 mph - N/A   Clear
12:15 PM 75.2 °F 32.0 °F 21% 29.95 in 10.0 mi North 23.0 mph - N/A   Clear
12:35 PM 73.4 °F 32.0 °F 22% 29.96 in 10.0 mi NNW 20.7 mph - N/A   Clear
12:55 PM 73.4 °F 28.4 °F 19% 29.96 in 10.0 mi North 24.2 mph - N/A   Clear
1:15 PM 73.4 °F 28.4 °F 19% 29.97 in 10.0 mi North 24.2 mph 34.5 mph N/A   Clear
1:35 PM 75.2 °F 30.2 °F 19% 29.97 in 10.0 mi North 20.7 mph - N/A   Clear
1:55 PM 73.4 °F 30.2 °F 20% 29.96 in 10.0 mi North 21.9 mph - N/A   Clear
2:15 PM 73.4 °F 30.2 °F 20% 29.95 in 10.0 mi North 20.7 mph - N/A   Clear
2:35 PM 73.4 °F 30.2 °F 20% 29.96 in 10.0 mi North 19.6 mph - N/A   Clear
2:55 PM 71.6 °F 28.4 °F 20% 29.96 in 10.0 mi North 18.4 mph - N/A   Clear
3:15 PM 71.6 °F 30.2 °F 22% 29.97 in 10.0 mi NNE 20.7 mph - N/A   Clear
3:35 PM 71.6 °F 30.2 °F 22% 29.97 in 10.0 mi North 17.3 mph - N/A   Clear
3:55 PM 71.6 °F 30.2 °F 22% 29.98 in 10.0 mi North 15.0 mph 26.5 mph N/A   Clear
4:15 PM 71.6 °F 28.4 °F 20% 29.99 in 10.0 mi North 13.8 mph - N/A   Clear
4:35 PM 69.8 °F 28.4 °F 21% 30.00 in 10.0 mi North 18.4 mph - N/A   Clear
4:55 PM 69.8 °F 28.4 °F 21% 30.01 in 10.0 mi NNE 20.7 mph - N/A   Clear
5:15 PM 68.0 °F 28.4 °F 23% 30.02 in 10.0 mi North 11.5 mph - N/A   Clear
5:35 PM 66.2 °F 28.4 °F 24% 30.03 in 10.0 mi North 17.3 mph - N/A   Clear
5:55 PM 64.4 °F 26.6 °F 24% 30.04 in 10.0 mi North 13.8 mph - N/A   Clear
6:15 PM 62.6 °F 26.6 °F 26% 30.04 in 10.0 mi North 11.5 mph - N/A   Clear
6:35 PM 60.8 °F 26.6 °F 27% 30.05 in 10.0 mi North 10.4 mph - N/A   Clear
6:55 PM 59.0 °F 26.6 °F 29% 30.06 in 10.0 mi NNE 10.4 mph - N/A   Clear
7:15 PM 57.2 °F 26.6 °F 31% 30.06 in 10.0 mi NNE 8.1 mph - N/A   Clear
7:35 PM 55.4 °F 24.8 °F 31% 30.08 in 10.0 mi North 9.2 mph - N/A   Clear
7:55 PM 51.8 °F 26.6 °F 38% 30.08 in 10.0 mi North 5.8 mph - N/A   Clear
8:15 PM 51.8 °F 24.8 °F 35% 30.08 in 10.0 mi North 6.9 mph - N/A   Clear
8:35 PM 51.8 °F 24.8 °F 35% 30.09 in 10.0 mi NNE 8.1 mph - N/A   Clear
8:55 PM 51.8 °F 24.8 °F 35% 30.09 in 10.0 mi NNE 5.8 mph - N/A   Clear
9:15 PM 48.2 °F 24.8 °F 40% 30.10 in 10.0 mi NNE 8.1 mph - N/A   Clear
9:35 PM 48.2 °F 24.8 °F 40% 30.10 in 10.0 mi NNE 8.1 mph - N/A   Clear
9:55 PM 48.2 °F 24.8 °F 40% 30.10 in 10.0 mi NE 6.9 mph - N/A   Clear
10:15 PM 51.8 °F 24.8 °F 35% 30.10 in 10.0 mi NE 6.9 mph - N/A   Clear
10:35 PM 48.2 °F 24.8 °F 40% 30.10 in 10.0 mi NE 6.9 mph - N/A   Clear
10:55 PM 48.2 °F 24.8 °F 40% 30.09 in 10.0 mi NE 6.9 mph - N/A   Clear
11:15 PM 48.2 °F 24.8 °F 40% 30.07 in 10.0 mi ENE 5.8 mph - N/A   Clear
11:35 PM 50.0 °F 23.0 °F 35% 30.08 in 10.0 mi East 3.5 mph - N/A   Clear
11:55 PM 48.2 °F 24.8 °F 40% 30.08 in 10.0 mi East 3.5 mph - N/A   Clear